Time,TemperatureF,DewpointF,PressureIn,WindDirection,WindDirectionDegrees,WindSpeedMPH,WindSpeedGustMPH,Humidity,HourlyPrecipIn,Conditions,Clouds,dailyrainin,SoftwareType,DateUTC
2013-04-16 00:00:00,44.0,31.0,-100.00,NNE,30,10.0,19.0,61,-99.99,,,-99.99,,2013-04-16 05:00:00,
2013-04-16 00:02:00,45.0,32.0,-100.00,North,10,14.0,20.0,60,-99.99,,,-99.99,,2013-04-16 05:02:00,
2013-04-16 00:10:00,44.0,31.0,-100.00,NE,35,11.0,21.0,61,-99.99,,,-99.99,,2013-04-16 05:10:00,
2013-04-16 00:40:00,42.0,31.0,-100.00,ENE,60,8.0,16.0,63,-99.99,,,-99.99,,2013-04-16 05:40:00,
2013-04-16 01:00:00,42.0,31.0,-100.00,NE,45,7.0,13.0,65,-99.99,,,-99.99,,2013-04-16 06:00:00,
2013-04-16 01:30:00,41.0,31.0,-100.00,NE,40,8.0,13.0,68,-99.99,,,-99.99,,2013-04-16 06:30:00,
2013-04-16 01:32:00,42.0,31.0,-100.00,ENE,60,8.0,16.0,63,-99.99,,,-99.99,,2013-04-16 06:32:00,
2013-04-16 02:00:00,40.0,31.0,-100.00,ENE,60,8.0,14.0,70,-99.99,,,-99.99,,2013-04-16 07:00:00,
2013-04-16 02:10:00,40.0,31.0,-100.00,NE,45,9.0,20.0,70,-99.99,,,-99.99,,2013-04-16 07:10:00,
2013-04-16 02:12:00,41.0,31.0,-100.00,NE,40,8.0,13.0,68,-99.99,,,-99.99,,2013-04-16 07:12:00,
2013-04-16 02:22:00,41.0,31.0,-100.00,NE,40,8.0,13.0,68,-99.99,,,-99.99,,2013-04-16 07:22:00,
2013-04-16 02:30:00,41.0,32.0,-100.00,NNE,30,9.0,14.0,71,-99.99,,,-99.99,,2013-04-16 07:30:00,
2013-04-16 02:40:00,41.0,32.0,-100.00,NE,40,7.0,16.0,71,-99.99,,,-99.99,,2013-04-16 07:40:00,
2013-04-16 02:42:00,40.0,31.0,-100.00,ENE,60,8.0,14.0,70,-99.99,,,-99.99,,2013-04-16 07:42:00,
2013-04-16 02:53:00,40.0,31.0,-100.00,ENE,60,8.0,14.0,70,-99.99,,,-99.99,,2013-04-16 07:53:00,
2013-04-16 03:00:00,41.0,33.0,-100.00,NE,45,10.0,14.0,71,-99.99,,,-99.99,,2013-04-16 08:00:00,
2013-04-16 03:10:00,41.0,33.0,-100.00,NE,35,11.0,19.0,71,-99.99,,,-99.99,,2013-04-16 08:10:00,
2013-04-16 03:30:00,42.0,33.0,-100.00,NNE,25,9.0,19.0,71,-99.99,,,-99.99,,2013-04-16 08:30:00,
2013-04-16 03:40:00,42.0,33.0,-100.00,NE,40,14.0,18.0,72,-99.99,,,-99.99,,2013-04-16 08:40:00,
2013-04-16 04:00:00,42.0,33.0,-100.00,NE,50,10.0,19.0,72,-99.99,,,-99.99,,2013-04-16 09:00:00,
2013-04-16 04:10:00,42.0,33.0,-100.00,NE,45,14.0,21.0,72,-99.99,,,-99.99,,2013-04-16 09:10:00,
2013-04-16 04:30:00,42.0,34.0,-100.00,NE,50,11.0,21.0,72,-99.99,,,-99.99,,2013-04-16 09:30:00,
2013-04-16 04:40:00,42.0,33.0,-100.00,NE,40,14.0,21.0,72,-99.99,,,-99.99,,2013-04-16 09:40:00,
2013-04-16 05:00:00,42.0,34.0,-100.00,NE,45,15.0,23.0,72,-99.99,,,-99.99,,2013-04-16 10:00:00,
2013-04-16 05:10:00,42.0,34.0,-100.00,ENE,60,15.0,23.0,72,-99.99,,,-99.99,,2013-04-16 10:10:00,
2013-04-16 05:30:00,42.0,34.0,-100.00,NE,45,16.0,22.0,73,-99.99,,,-99.99,,2013-04-16 10:30:00,
2013-04-16 05:40:00,41.0,33.0,-100.00,NE,35,14.0,21.0,73,-99.99,,,-99.99,,2013-04-16 10:40:00,
2013-04-16 06:30:00,41.0,33.0,-100.00,ENE,65,12.0,23.0,73,-99.99,,,-99.99,,2013-04-16 11:30:00,
2013-04-16 06:40:00,41.0,33.0,-100.00,ENE,60,9.0,24.0,72,-99.99,,,-99.99,,2013-04-16 11:40:00,
2013-04-16 07:00:00,41.0,32.0,-100.00,NE,35,15.0,21.0,71,-99.99,,,-99.99,,2013-04-16 12:00:00,
2013-04-16 07:10:00,41.0,32.0,-100.00,NE,40,10.0,21.0,71,-99.99,,,-99.99,,2013-04-16 12:10:00,
2013-04-16 07:30:00,40.0,32.0,-100.00,NE,35,11.0,20.0,74,-99.99,,,-99.99,,2013-04-16 12:30:00,
2013-04-16 07:40:00,40.0,33.0,-100.00,NNE,30,15.0,23.0,75,-99.99,,,-99.99,,2013-04-16 12:40:00,
2013-04-16 08:00:00,40.0,33.0,-100.00,NE,45,14.0,20.0,74,-99.99,,,-99.99,,2013-04-16 13:00:00,
2013-04-16 08:10:00,40.0,33.0,-100.00,NE,45,15.0,23.0,74,-99.99,,,-99.99,,2013-04-16 13:10:00,
2013-04-16 08:30:00,40.0,33.0,-100.00,NE,45,14.0,21.0,74,-99.99,,,-99.99,,2013-04-16 13:30:00,
2013-04-16 08:40:00,40.0,33.0,-100.00,ENE,60,10.0,21.0,74,-99.99,,,-99.99,,2013-04-16 13:40:00,
2013-04-16 09:00:00,41.0,33.0,-100.00,NE,45,14.0,21.0,73,-99.99,,,-99.99,,2013-04-16 14:00:00,
2013-04-16 09:10:00,41.0,33.0,-100.00,NE,40,10.0,19.0,73,-99.99,,,-99.99,,2013-04-16 14:10:00,
2013-04-16 09:30:00,41.0,33.0,-100.00,NE,50,15.0,23.0,72,-99.99,,,-99.99,,2013-04-16 14:30:00,
2013-04-16 09:40:00,41.0,33.0,-100.00,NE,35,15.0,21.0,72,-99.99,,,-99.99,,2013-04-16 14:40:00,
2013-04-16 10:00:00,41.0,32.0,-100.00,NE,35,11.0,19.0,71,-99.99,,,-99.99,,2013-04-16 15:00:00,
2013-04-16 10:30:00,42.0,33.0,-100.00,NNE,30,13.0,19.0,71,-99.99,,,-99.99,,2013-04-16 15:30:00,
2013-04-16 10:40:00,42.0,32.0,-100.00,ENE,60,14.0,21.0,70,-99.99,,,-99.99,,2013-04-16 15:40:00,
2013-04-16 11:00:00,42.0,33.0,-100.00,NE,50,12.0,23.0,69,-99.99,,,-99.99,,2013-04-16 16:00:00,
2013-04-16 11:10:00,43.0,33.0,-100.00,NNE,25,11.0,17.0,69,-99.99,,,-99.99,,2013-04-16 16:10:00,
2013-04-16 11:13:00,42.0,33.0,-100.00,NNE,30,13.0,19.0,71,-99.99,,,-99.99,,2013-04-16 16:13:00,
2013-04-16 11:23:00,42.0,33.0,-100.00,NNE,30,13.0,19.0,71,-99.99,,,-99.99,,2013-04-16 16:23:00,
2013-04-16 11:30:00,43.0,32.0,-100.00,NE,45,15.0,21.0,67,-99.99,,,-99.99,,2013-04-16 16:30:00,
2013-04-16 11:40:00,43.0,33.0,-100.00,ENE,65,13.0,21.0,67,-99.99,,,-99.99,,2013-04-16 16:40:00,
2013-04-16 12:00:00,44.0,33.0,-100.00,NE,50,14.0,21.0,66,-99.99,,,-99.99,,2013-04-16 17:00:00,
2013-04-16 12:10:00,44.0,33.0,-100.00,NE,40,11.0,21.0,65,-99.99,,,-99.99,,2013-04-16 17:10:00,
2013-04-16 12:30:00,43.0,32.0,-100.00,NE,35,14.0,22.0,65,-99.99,,,-99.99,,2013-04-16 17:30:00,
2013-04-16 12:40:00,44.0,33.0,-100.00,NNE,20,14.0,21.0,65,-99.99,,,-99.99,,2013-04-16 17:40:00,
2013-04-16 13:40:00,45.0,33.0,-100.00,NNE,25,9.0,20.0,63,-99.99,,,-99.99,,2013-04-16 18:40:00,
2013-04-16 14:00:00,45.0,33.0,-100.00,ENE,60,11.0,24.0,62,-99.99,,,-99.99,,2013-04-16 19:00:00,
2013-04-16 14:02:00,44.0,33.0,-100.00,NE,45,12.0,21.0,65,-99.99,,,-99.99,,2013-04-16 19:02:00,
2013-04-16 14:10:00,45.0,33.0,-100.00,NE,40,13.0,18.0,62,-99.99,,,-99.99,,2013-04-16 19:10:00,
2013-04-16 14:30:00,45.0,33.0,-100.00,NE,40,13.0,19.0,62,-99.99,,,-99.99,,2013-04-16 19:30:00,
2013-04-16 14:40:00,45.0,33.0,-100.00,NE,45,14.0,19.0,62,-99.99,,,-99.99,,2013-04-16 19:40:00,
2013-04-16 15:00:00,46.0,33.0,-100.00,NE,45,9.0,16.0,62,-99.99,,,-99.99,,2013-04-16 20:00:00,
2013-04-16 15:10:00,45.0,33.0,-100.00,NE,40,11.0,18.0,61,-99.99,,,-99.99,,2013-04-16 20:10:00,
2013-04-16 15:30:00,45.0,32.0,-100.00,NE,50,14.0,21.0,60,-99.99,,,-99.99,,2013-04-16 20:30:00,
2013-04-16 15:40:00,46.0,33.0,-100.00,NE,45,13.0,18.0,60,-99.99,,,-99.99,,2013-04-16 20:40:00,
2013-04-16 16:00:00,46.0,33.0,-100.00,NE,55,12.0,21.0,60,-99.99,,,-99.99,,2013-04-16 21:00:00,
2013-04-16 16:10:00,46.0,33.0,-100.00,ENE,70,14.0,19.0,60,-99.99,,,-99.99,,2013-04-16 21:10:00,
2013-04-16 16:30:00,46.0,33.0,-100.00,ENE,70,14.0,23.0,60,-99.99,,,-99.99,,2013-04-16 21:30:00,
2013-04-16 16:40:00,46.0,33.0,-100.00,ENE,75,16.0,22.0,60,-99.99,,,-99.99,,2013-04-16 21:40:00,
2013-04-16 17:10:00,46.0,33.0,-100.00,ENE,70,12.0,21.0,60,-99.99,,,-99.99,,2013-04-16 22:10:00,
2013-04-16 17:30:00,46.0,33.0,-100.00,ENE,60,16.0,21.0,60,-99.99,,,-99.99,,2013-04-16 22:30:00,
2013-04-16 17:40:00,46.0,33.0,-100.00,ENE,65,14.0,20.0,60,-99.99,,,-99.99,,2013-04-16 22:40:00,
2013-04-16 18:00:00,46.0,34.0,-100.00,ENE,60,11.0,24.0,61,-99.99,,,-99.99,,2013-04-16 23:00:00,
2013-04-16 18:10:00,47.0,34.0,-100.00,ENE,65,10.0,19.0,62,-99.99,,,-99.99,,2013-04-16 23:10:00,
2013-04-16 18:30:00,46.0,34.0,-100.00,ENE,75,14.0,20.0,62,-99.99,,,-99.99,,2013-04-16 23:30:00,
2013-04-16 18:40:00,46.0,34.0,-100.00,East,80,12.0,24.0,62,-99.99,,,-99.99,,2013-04-16 23:40:00,
2013-04-16 19:00:00,46.0,34.0,-100.00,East,80,11.0,19.0,63,-99.99,,,-99.99,,2013-04-17 00:00:00,
2013-04-16 19:10:00,46.0,34.0,-100.00,East,80,14.0,21.0,63,-99.99,,,-99.99,,2013-04-17 00:10:00,
2013-04-16 19:30:00,46.0,35.0,-100.00,East,80,16.0,23.0,64,-99.99,,,-99.99,,2013-04-17 00:30:00,
2013-04-16 19:40:00,46.0,35.0,-100.00,ENE,75,15.0,22.0,65,-99.99,,,-99.99,,2013-04-17 00:40:00,
2013-04-16 20:00:00,46.0,35.0,-100.00,East,85,10.0,23.0,65,-99.99,,,-99.99,,2013-04-17 01:00:00,
2013-04-16 20:20:00,46.0,35.0,-100.00,ENE,75,13.0,19.0,66,-99.99,,,-99.99,,2013-04-17 01:20:00,
2013-04-16 20:40:00,46.0,35.0,-100.00,East,80,10.0,21.0,67,-99.99,,,-99.99,,2013-04-17 01:40:00,
2013-04-16 21:10:00,46.0,36.0,-100.00,East,80,11.0,21.0,69,-99.99,,,-99.99,,2013-04-17 02:10:00,
2013-04-16 21:12:00,46.0,35.0,-100.00,ENE,75,13.0,19.0,66,-99.99,,,-99.99,,2013-04-17 02:12:00,
2013-04-16 21:30:00,45.0,36.0,-100.00,East,80,15.0,24.0,70,-99.99,,,-99.99,,2013-04-17 02:30:00,
2013-04-16 21:32:00,46.0,35.0,-100.00,East,80,10.0,21.0,67,-99.99,,,-99.99,,2013-04-17 02:32:00,
2013-04-16 21:40:00,45.0,36.0,-100.00,East,85,16.0,26.0,71,-99.99,,,-99.99,,2013-04-17 02:40:00,
2013-04-16 22:00:00,45.0,36.0,-100.00,East,80,16.0,23.0,71,-99.99,,,-99.99,,2013-04-17 03:00:00,
2013-04-16 22:02:00,46.0,36.0,-100.00,East,80,11.0,21.0,69,-99.99,,,-99.99,,2013-04-17 03:02:00,
2013-04-16 22:10:00,45.0,36.0,-100.00,East,85,14.0,24.0,71,-99.99,,,-99.99,,2013-04-17 03:10:00,
2013-04-16 22:30:00,45.0,36.0,-100.00,ENE,70,14.0,22.0,72,-99.99,,,-99.99,,2013-04-17 03:30:00,
2013-04-16 22:40:00,45.0,36.0,-100.00,East,85,14.0,21.0,72,-99.99,,,-99.99,,2013-04-17 03:40:00,
2013-04-16 23:00:00,45.0,37.0,-100.00,East,80,16.0,21.0,73,-99.99,,,-99.99,,2013-04-17 04:00:00,
2013-04-16 23:30:00,45.0,38.0,-100.00,East,95,16.0,24.0,75,-99.99,,,-99.99,,2013-04-17 04:30:00,
2013-04-16 23:40:00,45.0,38.0,-100.00,East,90,14.0,19.0,75,-99.99,,,-99.99,,2013-04-17 04:40:00,